Location: Bukit Nyuki
(2.5885°N, 113.7476°E)
Time: 13:13:21
(UTC+00:00)

Cosmos 1241 Rocket - Pass Details

Date: 18 May 2021
Orbit: 931 x 1016 km, 65.8° (Epoch: 16 June)

Event Time Altitude Azimuth Distance (km) Brightness Sun altitude
Rises 20:28:29 0° 339° (NNW) 3,647 7.5 -25.5°
Reaches altitude 10° 20:31:03 10° 339° (NNW) 2,689 6.8 -24.9°
Maximum altitude 20:37:20 90° 263° (W) 951 4.3 -23.4°
Drops below altitude 10° 20:43:31 10° 160° (SSE) 2,647 6.7 -22.0°
Sets 20:46:02 0° 160° (SSE) 3,586 7.5 -21.4°
